Location: Saint-Restitut
(44.3351°N, 4.7915°E)
Time: 03:26:19
(UTC+00:00)

Cosmos 1655 Rocket - Pass Details

Date: 03 February 2023
Orbit: 970 x 1006 km, 83.0° (Epoch: 27 March)

Event Time Altitude Azimuth Distance (km) Brightness Sun altitude
Rises 17:26:06 0° 351° (N) 3,696 6.9 -6.5°
Reaches altitude 10° 17:28:38 10° 352° (N) 2,739 6.3 -6.9°
Maximum altitude 17:34:55 88° 263° (W) 981 4.1 -8.0°
Drops below altitude 10° 17:41:08 10° 175° (S) 2,706 6.5 -9.1°
Sets 17:43:37 0° 175° (S) 3,648 7.1 -9.5°
